Weather History for Aberdeen / Amory, MS

Change the Weather History Date:

Tuesday, April 16, 2013

  Actual Average (KCBM) Record (KCBM)
Temperature  
Mean Temperature 76 °F -  
Max Temperature 87 °F 71 °F 86 °F (2006)
Min Temperature 66 °F 50 °F 34 °F (2014)
Cooling Degree Days 12    
Growing Degree Days 26 (Base 50)    
Moisture  
Dew Point 59 °F    
Average Humidity 56    
Maximum Humidity 60    
Minimum Humidity 53    
Precipitation  
Precipitation 0.00 in - - ()
Sea Level Pressure  
Sea Level Pressure 30.08 in    
Wind  
Wind Speed 7 mph (South)    
Max Wind Speed 13 mph    
Max Gust Speed 17 mph    
Visibility 8 miles    
Events      
Averages and records for this station are not official NWS values.
T = Trace of Precipitation, MM = Missing Value Source: NWS Daily Summary

Daily Weather History Graph

Daily Weather History Graph

Search for Another Location

Airport:

Trip Planner

Search our weather history database for the weather conditions in past years. The results will help you decide how hot, cold, wet, or windy it might be!

Date:

Astronomy

Apr. 16, 2013 Rise Set
Actual Time 6:21 AM CDT 7:26 PM CDT
Civil Twilight 5:55 AM CDT 7:51 PM CDT
Nautical Twilight 5:25 AM CDT 8:22 PM CDT
Astronomical Twilight 4:53 AM CDT 8:54 PM CDT
Moon 10:47 AM CDT (4/16) 12:15 AM CDT (4/16)
Length of Visible Light 13h 56m
Length of Day
13h 04m
Waxing Crescent, 33% of the Moon is Illuminated
Apr 16
Waxing Crescent
Apr 18
First Quarter
Apr 25
Full
May 2
Last Quarter
May 9
New

Hourly Weather History & Observations

Time (CDT) Temp. Heat Index Dew Point Humidity Pressure Visibility Wind Dir Wind Speed Gust Speed Precip Events Conditions
12:15 AM 69.8 °F - 53.6 °F 56% 30.01 in 8.0 mi SSE 6.9 mph - N/A   Scattered Clouds
12:35 AM 69.8 °F - 53.6 °F 56% 30.01 in 9.0 mi South 8.1 mph - N/A   Mostly Cloudy
12:55 AM 69.8 °F - 53.6 °F 56% 30.01 in 10.0 mi SSE 8.1 mph - N/A   Mostly Cloudy
1:15 AM 71.6 °F - 53.6 °F 53% 30.01 in 9.0 mi SSE 9.2 mph - N/A   Overcast
1:35 AM 71.6 °F - 55.4 °F 57% 30.02 in 9.0 mi South 6.9 mph - N/A   Overcast
1:55 AM 71.6 °F - 55.4 °F 57% 30.02 in 9.0 mi SSE 6.9 mph - N/A   Overcast
2:15 AM 71.6 °F - 55.4 °F 57% 30.01 in 10.0 mi SSE 8.1 mph - N/A   Overcast
2:35 AM 71.6 °F - 55.4 °F 57% 30.01 in 9.0 mi SSE 8.1 mph - N/A   Overcast
2:55 AM 71.6 °F - 55.4 °F 57% 30.01 in 8.0 mi South 8.1 mph - N/A   Overcast
3:15 AM 71.6 °F - 55.4 °F 57% 30.02 in 8.0 mi South 6.9 mph - N/A   Overcast
3:35 AM 71.6 °F - 55.4 °F 57% 30.02 in 7.0 mi SSE 5.8 mph - N/A   Overcast
3:55 AM 71.6 °F - 55.4 °F 57% 30.02 in 7.0 mi SSE 5.8 mph - N/A   Overcast
4:15 AM 71.6 °F - 55.4 °F 57% 30.03 in 7.0 mi SSE 4.6 mph - N/A   Overcast
4:35 AM 71.6 °F - 55.4 °F 57% 30.03 in 8.0 mi SSE 5.8 mph - N/A   Overcast
4:55 AM 71.6 °F - 55.4 °F 57% 30.04 in 7.0 mi SSE 5.8 mph - N/A   Overcast
5:15 AM 71.6 °F - 55.4 °F 57% 30.04 in 8.0 mi SE 5.8 mph - N/A   Overcast
5:35 AM 71.6 °F - 53.6 °F 53% 30.05 in 8.0 mi SE 4.6 mph - N/A   Overcast
5:55 AM 71.6 °F - 53.6 °F 53% 30.05 in 8.0 mi SSE 6.9 mph - N/A   Overcast
6:15 AM 71.6 °F - 53.6 °F 53% 30.05 in 8.0 mi SE 8.1 mph - N/A   Overcast
6:35 AM 71.6 °F - 53.6 °F 53% 30.06 in 7.0 mi North - - N/A   Overcast
6:55 AM 71.6 °F - 53.6 °F 53% 30.08 in 7.0 mi SE 5.8 mph - N/A   Overcast
7:15 AM 71.6 °F - 53.6 °F 53% 30.08 in 6.0 mi SE 5.8 mph - N/A   Haze
7:35 AM 71.6 °F - 53.6 °F 53% 30.10 in 7.0 mi ENE 5.8 mph - N/A   Overcast
7:55 AM 71.6 °F - 55.4 °F 57% 30.10 in 7.0 mi North - - N/A   Overcast
8:15 AM 71.6 °F - 55.4 °F 57% 30.10 in 8.0 mi SSE 8.1 mph - N/A   Overcast
8:35 AM 73.4 °F - 57.2 °F 57% 30.11 in 8.0 mi SSE 6.9 mph - N/A   Overcast
8:55 AM 73.4 °F - 57.2 °F 57% 30.11 in 8.0 mi SSE 11.5 mph - N/A   Overcast
9:15 AM 73.4 °F - 57.2 °F 57% 30.12 in 7.0 mi SSE 6.9 mph 16.1 mph N/A   Overcast
9:35 AM 75.2 °F - 57.2 °F 53% 30.12 in 8.0 mi South 8.1 mph - N/A   Overcast
9:55 AM 78.8 °F - 60.8 °F 54% 30.13 in 8.0 mi South 6.9 mph - N/A   Mostly Cloudy
10:15 AM 78.8 °F - 62.6 °F 57% 30.13 in 8.0 mi South 9.2 mph - N/A   Mostly Cloudy
10:35 AM 78.8 °F - 60.8 °F 54% 30.14 in 7.0 mi SSW 9.2 mph - N/A   Mostly Cloudy
10:55 AM 75.2 °F - 59.0 °F 57% 30.15 in 8.0 mi SSW 9.2 mph - N/A   Overcast
11:15 AM 78.8 °F - 60.8 °F 54% 30.14 in 8.0 mi South 9.2 mph - N/A   Overcast
11:35 AM 80.6 °F 81.8 °F 62.6 °F 54% 30.14 in 7.0 mi SSW 8.1 mph - N/A   Mostly Cloudy
11:55 AM 80.6 °F 81.8 °F 62.6 °F 54% 30.13 in 7.0 mi SSW 11.5 mph - N/A   Mostly Cloudy
12:15 PM 80.6 °F 81.8 °F 62.6 °F 54% 30.13 in 9.0 mi SW 6.9 mph - N/A   Mostly Cloudy
12:55 PM 80.6 °F 81.8 °F 62.6 °F 54% 30.13 in 8.0 mi SW 8.1 mph - N/A   Overcast
1:15 PM 82.4 °F 83.9 °F 64.4 °F 54% 30.12 in 8.0 mi SW 8.1 mph - N/A   Mostly Cloudy
1:35 PM 80.6 °F 82.3 °F 64.4 °F 58% 30.12 in 9.0 mi SW 6.9 mph - N/A   Mostly Cloudy
1:55 PM 84.2 °F 86.6 °F 66.2 °F 55% 30.11 in 9.0 mi SW 8.1 mph - N/A   Mostly Cloudy
2:15 PM 84.2 °F 86.6 °F 66.2 °F 55% 30.10 in 9.0 mi SSW 10.4 mph - N/A   Mostly Cloudy
2:35 PM 84.2 °F 86.6 °F 66.2 °F 55% 30.10 in 8.0 mi South 9.2 mph 16.1 mph N/A   Mostly Cloudy
2:55 PM 84.2 °F 86.6 °F 66.2 °F 55% 30.10 in 9.0 mi South 8.1 mph - N/A   Mostly Cloudy
3:15 PM 84.2 °F 86.6 °F 66.2 °F 55% 30.08 in 9.0 mi SSE 9.2 mph - N/A   Scattered Clouds
3:35 PM 87.8 °F 92.6 °F 69.8 °F 55% 30.08 in 9.0 mi South 6.9 mph 16.1 mph N/A   Partly Cloudy
3:55 PM 86.0 °F 90.4 °F 69.8 °F 58% 30.07 in 10.0 mi South 11.5 mph 16.1 mph N/A   Scattered Clouds
4:15 PM 84.2 °F 86.6 °F 66.2 °F 55% 30.08 in 8.0 mi South 12.7 mph - N/A   Scattered Clouds
4:35 PM 86.0 °F 89.4 °F 68.0 °F 55% 30.07 in 9.0 mi SSE 9.2 mph - N/A   Scattered Clouds
4:55 PM 87.8 °F 92.6 °F 69.8 °F 55% 30.07 in 8.0 mi South 10.4 mph 17.3 mph N/A   Partly Cloudy
5:15 PM 86.0 °F 89.4 °F 68.0 °F 55% 30.07 in 9.0 mi South 9.2 mph - N/A   Scattered Clouds
5:35 PM 84.2 °F 86.6 °F 66.2 °F 55% 30.07 in 9.0 mi South 8.1 mph - N/A   Partly Cloudy
5:55 PM 86.0 °F 89.4 °F 68.0 °F 55% 30.07 in 9.0 mi South 8.1 mph - N/A   Clear
6:15 PM 84.2 °F 86.6 °F 66.2 °F 55% 30.06 in 8.0 mi South 8.1 mph - N/A   Clear
6:35 PM 84.2 °F 86.6 °F 66.2 °F 55% 30.07 in 10.0 mi South 4.6 mph - N/A   Clear
7:15 PM 80.6 °F 81.8 °F 62.6 °F 54% 30.08 in 9.0 mi South 4.6 mph - N/A   Clear
7:35 PM 78.8 °F - 60.8 °F 54% 30.08 in 10.0 mi Calm Calm - N/A   Clear
7:55 PM 73.4 °F - 57.2 °F 57% 30.08 in 10.0 mi Calm Calm - N/A   Clear
8:15 PM 71.6 °F - 55.4 °F 57% 30.08 in 10.0 mi Calm Calm - N/A   Clear
8:35 PM 71.6 °F - 55.4 °F 57% 30.09 in 9.0 mi Calm Calm - N/A   Clear
8:55 PM 69.8 °F - 53.6 °F 56% 30.09 in 9.0 mi SE 3.5 mph - N/A   Clear
9:15 PM 69.8 °F - 53.6 °F 56% 30.09 in 10.0 mi Calm Calm - N/A   Clear
9:35 PM 69.8 °F - 53.6 °F 56% 30.10 in 9.0 mi Calm Calm - N/A   Clear
9:55 PM 69.8 °F - 51.8 °F 53% 30.10 in 7.0 mi Calm Calm - N/A   Clear
10:15 PM 69.8 °F - 51.8 °F 53% 30.10 in 7.0 mi Calm Calm - N/A   Clear
10:55 PM 68.0 °F - 51.8 °F 56% 30.10 in 7.0 mi Calm Calm - N/A   Clear
11:15 PM 68.0 °F - 51.8 °F 56% 30.10 in 6.0 mi Calm Calm - N/A   Haze
11:35 PM 66.2 °F - 51.8 °F 60% 30.10 in 5.0 mi Calm Calm - N/A   Haze
11:55 PM 66.2 °F - 51.8 °F 60% 30.11 in 8.0 mi Calm Calm - N/A   Clear